Time,TemperatureF,DewpointF,PressureIn,WindDirection,WindDirectionDegrees,WindSpeedMPH,WindSpeedGustMPH,Humidity,HourlyPrecipIn,Conditions,Clouds,dailyrainin,SoftwareType,DateUTC
2013-05-11 00:12:00,68.5,67.0,30.07,SW,224,11.0,-999.0,96,-99.99,,,0.00,weatherlink.com 1.10,2013-05-11 04:12:00,
2013-05-11 00:27:00,68.5,67.0,30.07,SSW,208,13.0,-999.0,96,-99.99,,,0.00,weatherlink.com 1.10,2013-05-11 04:27:00,
2013-05-11 00:42:00,68.4,67.0,30.07,SSW,202,11.0,-999.0,96,-99.99,,,0.00,weatherlink.com 1.10,2013-05-11 04:42:00,
2013-05-11 00:57:00,68.3,67.0,30.07,SSW,213,11.0,-999.0,96,-99.99,,,0.00,weatherlink.com 1.10,2013-05-11 04:57:00,
2013-05-11 01:12:00,68.5,67.0,30.07,SSW,212,11.0,-999.0,96,-99.99,,,0.00,weatherlink.com 1.10,2013-05-11 05:12:00,
2013-05-11 01:27:00,68.5,67.0,30.05,SSW,204,12.0,-999.0,96,-99.99,,,0.00,weatherlink.com 1.10,2013-05-11 05:27:00,
2013-05-11 01:42:00,68.7,68.0,30.05,SSW,208,11.0,-999.0,96,-99.99,,,0.00,weatherlink.com 1.10,2013-05-11 05:42:00,
2013-05-11 01:57:00,68.7,68.0,30.04,SSW,211,12.0,-999.0,96,-99.99,,,0.00,weatherlink.com 1.10,2013-05-11 05:57:00,
2013-05-11 02:12:00,68.4,67.0,30.03,SSW,206,9.0,-999.0,96,-99.99,,,0.00,weatherlink.com 1.10,2013-05-11 06:12:00,
2013-05-11 02:27:00,68.3,67.0,30.04,SSW,211,10.0,-999.0,96,-99.99,,,0.00,weatherlink.com 1.10,2013-05-11 06:27:00,
2013-05-11 02:42:00,68.3,67.0,30.03,SSW,198,12.0,-999.0,96,-99.99,,,0.00,weatherlink.com 1.10,2013-05-11 06:42:00,
2013-05-11 02:57:00,68.3,67.0,30.03,SSW,201,11.0,-999.0,96,-99.99,,,0.00,weatherlink.com 1.10,2013-05-11 06:57:00,
2013-05-11 03:12:00,68.2,67.0,30.04,SSW,197,12.0,-999.0,96,-99.99,,,0.00,weatherlink.com 1.10,2013-05-11 07:12:00,
2013-05-11 03:27:00,68.3,67.0,30.03,SSW,212,12.0,-999.0,96,-99.99,,,0.00,weatherlink.com 1.10,2013-05-11 07:27:00,
2013-05-11 03:42:00,68.2,67.0,30.03,SSW,210,12.0,-999.0,96,-99.99,,,0.00,weatherlink.com 1.10,2013-05-11 07:42:00,
2013-05-11 03:57:00,68.3,67.0,30.03,SSW,212,13.0,-999.0,96,-99.99,,,0.00,weatherlink.com 1.10,2013-05-11 07:57:00,
2013-05-11 04:12:00,68.3,67.0,30.03,SW,214,13.0,-999.0,96,-99.99,,,0.00,weatherlink.com 1.10,2013-05-11 08:12:00,
2013-05-11 04:27:00,68.3,67.0,30.02,SW,215,14.0,-999.0,96,-99.99,,,0.00,weatherlink.com 1.10,2013-05-11 08:27:00,
2013-05-11 04:42:00,68.2,67.0,30.02,SSW,207,14.0,-999.0,95,-99.99,,,0.00,weatherlink.com 1.10,2013-05-11 08:42:00,
2013-05-11 04:58:00,68.2,67.0,30.02,SSW,198,12.0,-999.0,95,-99.99,,,0.00,weatherlink.com 1.10,2013-05-11 08:58:00,
2013-05-11 05:13:00,68.1,67.0,30.02,SSW,212,13.0,-999.0,95,-99.99,,,0.00,weatherlink.com 1.10,2013-05-11 09:13:00,
2013-05-11 05:28:00,68.0,67.0,30.02,SSW,211,11.0,-999.0,95,-99.99,,,0.00,weatherlink.com 1.10,2013-05-11 09:28:00,
2013-05-11 05:43:00,68.0,67.0,30.02,SSW,210,11.0,-999.0,95,-99.99,,,0.00,weatherlink.com 1.10,2013-05-11 09:43:00,
2013-05-11 05:58:00,68.2,67.0,30.02,SW,215,13.0,-999.0,95,-99.99,,,0.00,weatherlink.com 1.10,2013-05-11 09:58:00,
2013-05-11 06:13:00,68.3,67.0,30.03,SSW,207,12.0,-999.0,95,-99.99,,,0.00,weatherlink.com 1.10,2013-05-11 10:13:00,
2013-05-11 06:28:00,68.3,67.0,30.03,SSW,207,11.0,-999.0,95,-99.99,,,0.00,weatherlink.com 1.10,2013-05-11 10:28:00,
2013-05-11 06:43:00,68.1,67.0,30.04,SSW,213,11.0,-999.0,95,-99.99,,,0.00,weatherlink.com 1.10,2013-05-11 10:43:00,
2013-05-11 06:58:00,68.1,67.0,30.03,SW,217,11.0,-999.0,95,-99.99,,,0.00,weatherlink.com 1.10,2013-05-11 10:58:00,
2013-05-11 07:13:00,68.0,67.0,30.03,SSW,209,9.0,-999.0,95,-99.99,,,0.00,weatherlink.com 1.10,2013-05-11 11:13:00,
2013-05-11 07:28:00,68.0,67.0,30.03,SSW,209,9.0,-999.0,95,-99.99,,,0.00,weatherlink.com 1.10,2013-05-11 11:28:00,
2013-05-11 07:43:00,68.2,67.0,30.03,SSW,213,12.0,-999.0,95,-99.99,,,0.00,weatherlink.com 1.10,2013-05-11 11:43:00,
2013-05-11 07:58:00,68.3,67.0,30.03,SW,215,11.0,-999.0,95,-99.99,,,0.00,weatherlink.com 1.10,2013-05-11 11:58:00,
2013-05-11 08:13:00,68.5,67.0,30.03,SSW,213,11.0,-999.0,95,-99.99,,,0.00,weatherlink.com 1.10,2013-05-11 12:13:00,
2013-05-11 08:28:00,68.4,67.0,30.02,SSW,212,10.0,-999.0,95,-99.99,,,0.00,weatherlink.com 1.10,2013-05-11 12:28:00,
2013-05-11 08:43:00,68.5,67.0,30.02,SSW,209,11.0,-999.0,95,-99.99,,,0.00,weatherlink.com 1.10,2013-05-11 12:43:00,
2013-05-11 08:58:00,68.8,67.0,30.02,SW,214,11.0,-999.0,95,-99.99,,,0.00,weatherlink.com 1.10,2013-05-11 12:58:00,
2013-05-11 09:13:00,68.9,67.0,30.01,SSW,211,11.0,-999.0,94,-99.99,,,0.00,weatherlink.com 1.10,2013-05-11 13:13:00,
2013-05-11 09:28:00,69.0,67.0,30.01,SSW,212,11.0,-999.0,94,-99.99,,,0.00,weatherlink.com 1.10,2013-05-11 13:28:00,
2013-05-11 09:43:00,69.1,67.0,30.00,SSW,209,12.0,-999.0,94,-99.99,,,0.00,weatherlink.com 1.10,2013-05-11 13:43:00,
2013-05-11 09:58:00,69.3,68.0,30.00,SSW,211,11.0,-999.0,94,-99.99,,,0.00,weatherlink.com 1.10,2013-05-11 13:58:00,
2013-05-11 10:13:00,69.5,68.0,30.00,SSW,206,11.0,-999.0,94,-99.99,,,0.00,weatherlink.com 1.10,2013-05-11 14:13:00,
2013-05-11 10:28:00,69.9,68.0,30.00,SSW,200,10.0,-999.0,93,-99.99,,,0.00,weatherlink.com 1.10,2013-05-11 14:28:00,
2013-05-11 10:43:00,69.8,68.0,30.00,SSW,201,11.0,-999.0,93,-99.99,,,0.00,weatherlink.com 1.10,2013-05-11 14:43:00,
2013-05-11 10:58:00,70.4,68.0,30.00,SSW,205,11.0,-999.0,93,-99.99,,,0.00,weatherlink.com 1.10,2013-05-11 14:58:00,
2013-05-11 11:13:00,71.5,69.0,30.00,SSW,194,10.0,-999.0,93,-99.99,,,0.00,weatherlink.com 1.10,2013-05-11 15:13:00,
2013-05-11 11:28:00,72.3,69.0,29.99,SSW,192,11.0,-999.0,90,-99.99,,,0.00,weatherlink.com 1.10,2013-05-11 15:28:00,
2013-05-11 11:43:00,72.2,69.0,29.98,South,183,13.0,-999.0,89,-99.99,,,0.00,weatherlink.com 1.10,2013-05-11 15:43:00,
2013-05-11 11:58:00,72.7,70.0,29.98,SSW,200,13.0,-999.0,90,-99.99,,,0.00,weatherlink.com 1.10,2013-05-11 15:58:00,
2013-05-11 12:13:00,72.7,69.0,29.98,SSW,200,16.0,-999.0,89,-99.99,,,0.00,weatherlink.com 1.10,2013-05-11 16:13:00,
2013-05-11 12:28:00,72.3,69.0,29.98,SSW,203,15.0,-999.0,89,-99.99,,,0.00,weatherlink.com 1.10,2013-05-11 16:28:00,
2013-05-11 12:43:00,71.4,69.0,29.98,SSW,208,15.0,-999.0,91,-99.99,,,0.00,weatherlink.com 1.10,2013-05-11 16:43:00,
2013-05-11 12:58:00,71.3,69.0,29.98,SSW,212,15.0,-999.0,91,-99.99,,,0.00,weatherlink.com 1.10,2013-05-11 16:58:00,
2013-05-11 13:13:00,71.3,68.0,29.97,SW,214,16.0,-999.0,90,-99.99,,,0.00,weatherlink.com 1.10,2013-05-11 17:13:00,
2013-05-11 13:28:00,71.3,68.0,29.96,SSW,207,16.0,-999.0,90,-99.99,,,0.00,weatherlink.com 1.10,2013-05-11 17:28:00,
2013-05-11 13:43:00,71.3,69.0,29.95,SSW,202,15.0,-999.0,91,-99.99,,,0.00,weatherlink.com 1.10,2013-05-11 17:43:00,
2013-05-11 13:58:00,72.3,69.0,29.93,South,187,17.0,-999.0,90,-99.99,,,0.00,weatherlink.com 1.10,2013-05-11 17:58:00,
2013-05-11 14:13:00,72.8,70.0,29.93,SSW,198,21.0,-999.0,90,-99.99,,,0.00,weatherlink.com 1.10,2013-05-11 18:13:00,
2013-05-11 14:28:00,72.2,69.0,29.93,SSW,198,17.0,-999.0,89,-99.99,,,0.00,weatherlink.com 1.10,2013-05-11 18:28:00,
2013-05-11 14:43:00,71.4,68.0,29.93,SSW,212,18.0,-999.0,89,-99.99,,,0.00,weatherlink.com 1.10,2013-05-11 18:43:00,
2013-05-11 14:58:00,71.2,68.0,29.92,SW,214,16.0,-999.0,90,-99.99,,,0.00,weatherlink.com 1.10,2013-05-11 18:58:00,
2013-05-11 15:13:00,71.3,68.0,29.91,SSW,209,16.0,-999.0,90,-99.99,,,0.00,weatherlink.com 1.10,2013-05-11 19:13:00,
2013-05-11 15:28:00,71.8,69.0,29.91,SW,222,13.0,-999.0,90,-99.99,,,0.00,weatherlink.com 1.10,2013-05-11 19:28:00,
2013-05-11 15:43:00,72.3,69.0,29.90,SW,219,15.0,-999.0,89,-99.99,,,0.00,weatherlink.com 1.10,2013-05-11 19:43:00,
2013-05-11 15:58:00,71.6,68.0,29.90,SSW,211,14.0,-999.0,89,-99.99,,,0.00,weatherlink.com 1.10,2013-05-11 19:58:00,
2013-05-11 16:13:00,70.7,68.0,29.90,SSW,209,16.0,-999.0,91,-99.99,,,0.00,weatherlink.com 1.10,2013-05-11 20:13:00,
2013-05-11 16:28:00,70.4,68.0,29.90,SSW,208,18.0,-999.0,92,-99.99,,,0.00,weatherlink.com 1.10,2013-05-11 20:28:00,
2013-05-11 16:43:00,70.6,69.0,29.90,SSW,213,16.0,-999.0,93,-99.99,,,0.00,weatherlink.com 1.10,2013-05-11 20:43:00,
2013-05-11 16:58:00,70.2,68.0,29.90,SSW,210,16.0,-999.0,93,-99.99,,,0.00,weatherlink.com 1.10,2013-05-11 20:58:00,
2013-05-11 17:13:00,70.1,68.0,29.91,SSW,211,19.0,-999.0,93,-99.99,,,0.00,weatherlink.com 1.10,2013-05-11 21:13:00,
2013-05-11 17:29:00,69.8,67.0,29.90,SSW,207,15.0,-999.0,92,-99.99,,,0.00,weatherlink.com 1.10,2013-05-11 21:29:00,
2013-05-11 17:44:00,69.6,67.0,29.90,SW,221,19.0,-999.0,92,-99.99,,,0.00,weatherlink.com 1.10,2013-05-11 21:44:00,
2013-05-11 17:59:00,69.5,67.0,29.89,SSW,207,18.0,-999.0,91,-99.99,,,0.00,weatherlink.com 1.10,2013-05-11 21:59:00,
2013-05-11 18:14:00,69.4,66.0,29.88,SSW,204,19.0,-999.0,90,-99.99,,,0.00,weatherlink.com 1.10,2013-05-11 22:14:00,
2013-05-11 18:29:00,69.6,66.0,29.88,SW,219,23.0,-999.0,89,-99.99,,,0.00,weatherlink.com 1.10,2013-05-11 22:29:00,
2013-05-11 18:44:00,69.8,66.0,29.89,SSW,210,18.0,-999.0,88,-99.99,,,0.00,weatherlink.com 1.10,2013-05-11 22:44:00,
2013-05-11 18:59:00,69.7,66.0,29.89,SW,215,19.0,-999.0,88,-99.99,,,0.00,weatherlink.com 1.10,2013-05-11 22:59:00,
2013-05-11 19:14:00,69.3,66.0,29.89,SSW,211,16.0,-999.0,88,-99.99,,,0.00,weatherlink.com 1.10,2013-05-11 23:14:00,
2013-05-11 19:29:00,68.9,66.0,29.88,SSW,211,15.0,-999.0,90,-99.99,,,0.00,weatherlink.com 1.10,2013-05-11 23:29:00,
2013-05-11 19:44:00,68.8,66.0,29.89,SSW,209,18.0,-999.0,90,-99.99,,,0.00,weatherlink.com 1.10,2013-05-11 23:44:00,
2013-05-11 19:59:00,68.6,66.0,29.89,SSW,211,19.0,-999.0,91,-99.99,,,0.00,weatherlink.com 1.10,2013-05-11 23:59:00,
2013-05-11 20:14:00,68.5,66.0,29.88,SW,217,19.0,-999.0,92,-99.99,,,0.00,weatherlink.com 1.10,2013-05-12 00:14:00,
2013-05-11 20:29:00,69.0,66.0,29.90,WSW,246,18.0,-999.0,91,-99.99,,,0.00,weatherlink.com 1.10,2013-05-12 00:29:00,
2013-05-11 20:44:00,69.0,66.0,29.89,SW,228,15.0,-999.0,91,-99.99,,,0.00,weatherlink.com 1.10,2013-05-12 00:44:00,
2013-05-11 20:59:00,68.9,66.0,29.90,SW,225,18.0,-999.0,91,-99.99,,,0.00,weatherlink.com 1.10,2013-05-12 00:59:00,
2013-05-11 21:14:00,68.7,66.0,29.91,SW,215,16.0,-999.0,91,-99.99,,,0.00,weatherlink.com 1.10,2013-05-12 01:14:00,
2013-05-11 21:29:00,68.5,66.0,29.91,SW,221,17.0,-999.0,92,-99.99,,,0.00,weatherlink.com 1.10,2013-05-12 01:29:00,
2013-05-11 21:44:00,68.4,66.0,29.91,SW,222,16.0,-999.0,92,-99.99,,,0.00,weatherlink.com 1.10,2013-05-12 01:44:00,
2013-05-11 21:59:00,68.3,66.0,29.90,SW,219,17.0,-999.0,93,-99.99,,,0.00,weatherlink.com 1.10,2013-05-12 01:59:00,
2013-05-11 22:14:00,68.3,66.0,29.90,SSW,212,18.0,-999.0,93,-99.99,,,0.00,weatherlink.com 1.10,2013-05-12 02:14:00,
2013-05-11 22:29:00,68.1,66.0,29.90,SW,223,15.0,-999.0,93,-99.99,,,0.00,weatherlink.com 1.10,2013-05-12 02:29:00,
2013-05-11 22:44:00,68.0,66.0,29.90,SW,219,14.0,-999.0,93,-99.99,,,0.00,weatherlink.com 1.10,2013-05-12 02:44:00,
2013-05-11 22:59:00,67.9,66.0,29.91,WSW,240,15.0,-999.0,93,-99.99,,,0.00,weatherlink.com 1.10,2013-05-12 02:59:00,
2013-05-11 23:14:00,67.9,66.0,29.90,SW,230,15.0,-999.0,94,-99.99,,,0.00,weatherlink.com 1.10,2013-05-12 03:14:00,
2013-05-11 23:29:00,68.0,66.0,29.90,SW,229,16.0,-999.0,94,-99.99,,,0.00,weatherlink.com 1.10,2013-05-12 03:29:00,
2013-05-11 23:44:00,68.0,66.0,29.89,SW,222,15.0,-999.0,94,-99.99,,,0.00,weatherlink.com 1.10,2013-05-12 03:44:00,
2013-05-11 23:59:00,68.0,66.0,29.89,SW,223,12.0,-999.0,94,-99.99,,,0.00,weatherlink.com 1.10,2013-05-12 03:59:00,